Ely, MN

3:48 PM CDT on August 18, 2017 (GMT -0500)
Ely Municipal

Weather History for KELO - April, 2013

Change the Weather History Date:

Monday, April 29, 2013

  Actual Average Record
Temperature  
Mean Temperature 46 °F -  
Max Temperature 66 °F 56 °F 80 °F (2001)
Min Temperature 26 °F 30 °F 19 °F (2008)
Degree Days  
Heating Degree Days 19    
Moisture  
Dew Point 27 °F    
Average Humidity 53    
Maximum Humidity 100    
Minimum Humidity 14    
Precipitation  
Precipitation 0.00 in - - ()
Sea Level Pressure  
Sea Level Pressure 29.73 in    
Wind  
Wind Speed 3 mph (SSE)    
Max Wind Speed 15 mph    
Max Gust Speed -    
Visibility 10 miles    
Events      
Averages and records for this station are not official NWS values.
T = Trace of Precipitation, MM = Missing Value Source: NWS Daily Summary

Daily Weather History Graph

Daily Weather History Graph

Search for Another Location

Airport or City:

Trip Planner

Search our weather history database for the weather conditions in past years. The results will help you decide how hot, cold, wet, or windy it might be!

Date:

Astronomy

Apr. 29, 2013 Rise Set
Actual Time 5:52 AM CDT 8:17 PM CDT
Civil Twilight 5:18 AM CDT 8:52 PM CDT
Nautical Twilight 4:35 AM CDT 9:35 PM CDT
Astronomical Twilight 3:46 AM CDT 10:25 PM CDT
Moon No Moon Rise 9:06 AM CDT (4/29)
Length of Visible Light 15h 33m
Length of Day
14h 25m
Waning Gibbous, 80% of the Moon is Illuminated
Apr 29
Waning Gibbous
May 2
Last Quarter
May 9
New
May 17
First Quarter
May 24
Full

Hourly Weather History & Observations

Time (CDT) Temp. Windchill Dew Point Humidity Pressure Visibility Wind Dir Wind Speed Gust Speed Precip Events Conditions
12:12 AM 39.2 °F 35.0 °F 37.4 °F 93% 29.72 in 10.0 mi West 5.8 mph - N/A   Clear
12:33 AM 42.8 °F 39.3 °F 37.4 °F 81% 29.73 in 10.0 mi WNW 5.8 mph - N/A   Clear
12:53 AM 44.6 °F 42.2 °F 37.4 °F 76% 29.74 in 10.0 mi WNW 4.6 mph - N/A   Clear
1:12 AM 44.6 °F 42.2 °F 37.4 °F 76% 29.74 in 10.0 mi WNW 4.6 mph - N/A   Clear
1:33 AM 42.8 °F - 35.6 °F 76% 29.75 in 10.0 mi Calm Calm - N/A   Clear
1:53 AM 42.8 °F - 35.6 °F 76% 29.76 in 10.0 mi Calm Calm - N/A   Clear
2:12 AM 39.2 °F 37.0 °F 35.6 °F 87% 29.76 in 10.0 mi West 3.5 mph - N/A   Clear
2:33 AM 39.2 °F - 33.8 °F 81% 29.77 in 10.0 mi Calm Calm - N/A   Clear
2:53 AM 35.6 °F 32.8 °F 32.0 °F 87% 29.77 in 10.0 mi West 3.5 mph - N/A   Clear
3:12 AM 35.6 °F - 30.2 °F 81% 29.77 in 10.0 mi Calm Calm - N/A   Clear
3:33 AM 30.2 °F - 30.2 °F 100% 29.78 in 10.0 mi Calm Calm - N/A   Clear
3:53 AM 30.2 °F - 28.4 °F 93% 29.78 in 10.0 mi Calm Calm - N/A   Clear
4:12 AM 30.2 °F - 28.4 °F 93% 29.79 in 10.0 mi Calm Calm - N/A   Clear
4:33 AM 30.2 °F - 28.4 °F 93% 29.80 in 10.0 mi Calm Calm - N/A   Clear
4:53 AM 28.4 °F - 26.6 °F 93% 29.80 in 10.0 mi Calm Calm - N/A   Clear
5:13 AM 28.4 °F - 26.6 °F 93% 29.81 in 10.0 mi Calm Calm - N/A   Clear
5:32 AM 28.4 °F - 26.6 °F 93% 29.81 in 10.0 mi Calm Calm - N/A   Clear
5:53 AM 28.4 °F - 26.6 °F 93% 29.81 in 10.0 mi Calm Calm - N/A   Clear
6:13 AM 28.4 °F - 26.6 °F 93% 29.82 in 10.0 mi Calm Calm - N/A   Clear
6:32 AM 26.6 °F - 26.6 °F 100% 29.82 in 10.0 mi Calm Calm - N/A   Clear
6:53 AM 28.4 °F - 26.6 °F 93% 29.82 in 10.0 mi Calm Calm - N/A   Clear
7:12 AM 30.2 °F - 28.4 °F 93% 29.82 in 10.0 mi Calm Calm - N/A   Clear
7:33 AM 33.8 °F - 30.2 °F 87% 29.82 in 10.0 mi Calm Calm - N/A   Clear
7:53 AM 37.4 °F - 28.4 °F 70% 29.82 in 10.0 mi Calm Calm - N/A   Clear
8:12 AM 41.0 °F - 28.4 °F 61% 29.82 in 10.0 mi Calm Calm - N/A   Clear
8:33 AM 42.8 °F - 28.4 °F 57% 29.81 in 10.0 mi Calm Calm - N/A   Clear
8:53 AM 42.8 °F 41.1 °F 26.6 °F 53% 29.80 in 10.0 mi North 3.5 mph - N/A   Clear
9:12 AM 44.6 °F 42.2 °F 26.6 °F 49% 29.80 in 10.0 mi NNE 4.6 mph - N/A   Clear
9:33 AM 44.6 °F - 26.6 °F 49% 29.80 in 10.0 mi Calm Calm - N/A   Clear
9:53 AM 46.4 °F - 26.6 °F 46% 29.80 in 10.0 mi Calm Calm - N/A   Clear
10:13 AM 48.2 °F - 26.6 °F 43% 29.80 in 10.0 mi Calm Calm - N/A   Clear
10:33 AM 50.0 °F - 26.6 °F 40% 29.79 in 10.0 mi Calm Calm - N/A   Clear
10:51 AM 51.8 °F - 26.6 °F 38% 29.79 in 10.0 mi Calm Calm - N/A   Clear
11:12 AM 53.6 °F - 24.8 °F 33% 29.77 in 10.0 mi Calm Calm - N/A   Clear
11:29 AM 53.6 °F - 23.0 °F 30% 29.76 in 10.0 mi Calm Calm - N/A   Clear
11:53 AM 55.4 °F - 21.2 °F 26% 29.75 in 10.0 mi ESE 3.5 mph - N/A   Clear
12:12 PM 57.2 °F - 23.0 °F 27% 29.75 in 10.0 mi SE 4.6 mph - N/A   Clear
12:33 PM 57.2 °F - 21.2 °F 25% 29.74 in 10.0 mi ESE 6.9 mph - N/A   Clear
12:41 PM 57.2 °F - 21.2 °F 25% 29.75 in 10.0 mi South 3.5 mph - N/A   Clear
1:01 PM 59.0 °F - 19.4 °F 22% 29.74 in 10.0 mi Calm Calm - N/A   Clear
1:09 PM 59.0 °F - 21.2 °F 23% 29.74 in 10.0 mi SSE 6.9 mph - N/A   Clear
1:24 PM 60.8 °F - 21.2 °F 22% 29.73 in 10.0 mi SSE 9.2 mph - N/A   Clear
1:52 PM 62.6 °F - 17.6 °F 18% 29.72 in 10.0 mi SSW 6.9 mph - N/A   Clear
2:13 PM 62.6 °F - 17.6 °F 18% 29.71 in 10.0 mi SSW 5.8 mph - N/A   Clear
2:33 PM 62.6 °F - 15.8 °F 16% 29.70 in 10.0 mi SW 5.8 mph - N/A   Clear
2:52 PM 64.4 °F - 15.8 °F 15% 29.69 in 10.0 mi South 9.2 mph - N/A   Clear
3:13 PM 64.4 °F - 14.0 °F 14% 29.68 in 10.0 mi SW 8.1 mph - N/A   Clear
3:32 PM 66.2 °F - 15.8 °F 14% 29.68 in 10.0 mi SW 5.8 mph - N/A   Clear
3:53 PM 64.4 °F - 21.2 °F 19% 29.67 in 10.0 mi SSE 11.5 mph - N/A   Clear
4:13 PM 64.4 °F - 21.2 °F 19% 29.66 in 10.0 mi South 11.5 mph - N/A   Clear
4:33 PM 62.6 °F - 24.8 °F 24% 29.65 in 10.0 mi SE 15.0 mph - N/A   Clear
4:53 PM 62.6 °F - 24.8 °F 24% 29.64 in 10.0 mi SSE 15.0 mph - N/A   Clear
5:13 PM 62.6 °F - 21.2 °F 20% 29.66 in 10.0 mi South 11.5 mph - N/A   Clear
5:33 PM 60.8 °F - 23.0 °F 23% 29.66 in 10.0 mi SSE 9.2 mph - N/A   Clear
5:51 PM 60.8 °F - 24.8 °F 25% 29.66 in 10.0 mi SSE 10.4 mph - N/A   Clear
6:13 PM 59.0 °F - 24.8 °F 27% 29.66 in 10.0 mi SE 8.1 mph - N/A   Clear
6:33 PM 59.0 °F - 26.6 °F 29% 29.65 in 10.0 mi SE 9.2 mph - N/A   Clear
6:53 PM 57.2 °F - 26.6 °F 31% 29.65 in 10.0 mi SSE 4.6 mph - N/A   Clear
7:12 PM 57.2 °F - 26.6 °F 31% 29.65 in 10.0 mi SE 4.6 mph - N/A   Clear
7:33 PM 55.4 °F - 24.8 °F 31% 29.65 in 10.0 mi SE 3.5 mph - N/A   Clear
7:51 PM 53.6 °F - 23.0 °F 30% 29.66 in 10.0 mi SE 3.5 mph - N/A   Clear
8:13 PM 51.8 °F - 24.8 °F 35% 29.65 in 10.0 mi ESE 5.8 mph - N/A   Clear
8:32 PM 46.4 °F 43.5 °F 28.4 °F 50% 29.66 in 10.0 mi SE 5.8 mph - N/A   Clear
8:53 PM 48.2 °F - 28.4 °F 46% 29.66 in 10.0 mi ESE 4.6 mph - N/A   Clear
9:13 PM 46.4 °F 44.3 °F 30.2 °F 53% 29.66 in 10.0 mi SE 4.6 mph - N/A   Clear
9:32 PM 46.4 °F 44.3 °F 30.2 °F 53% 29.66 in 10.0 mi ESE 4.6 mph - N/A   Clear
9:53 PM 46.4 °F 45.2 °F 30.2 °F 53% 29.66 in 10.0 mi ESE 3.5 mph - N/A   Clear
10:13 PM 46.4 °F - 32.0 °F 57% 29.66 in 10.0 mi Calm Calm - N/A   Clear
10:32 PM 46.4 °F - 32.0 °F 57% 29.65 in 10.0 mi Calm Calm - N/A   Clear
10:53 PM 44.6 °F - 33.8 °F 66% 29.65 in 10.0 mi Calm Calm - N/A   Clear
11:13 PM 44.6 °F - 33.8 °F 66% 29.64 in 10.0 mi Calm Calm - N/A   Clear
11:33 PM 42.8 °F - 33.8 °F 70% 29.64 in 10.0 mi Calm Calm - N/A   Clear
11:52 PM 41.0 °F - 30.2 °F 65% 29.63 in 10.0 mi Calm Calm - N/A   Clear